Location: *
(46.1833°N, 22.7667°E)
Time: 22:27:31
(UTC+00:00)

Cosmos 2082 Rocket - Pass Details

Date: 17 September 2019
Orbit: 831 x 855 km, 71.0° (Epoch: 16 October)

Event Time Altitude Azimuth Distance (km) Brightness Sun altitude
Rises 22:44:19 0° 339° (NNW) 3,435 6.0 -41.5°
Reaches altitude 10° 22:47:08 10° 350° (N) 2,497 5.2 -41.5°
Enters shadow 22:49:39 21° 12° (NNE) 1,816 4.4 -41.4°
